Cortland, IL

10:47 PM CDT on September 27, 2016 (GMT -0500)
De Kalb Taylor Municipal

Weather History for KDKB - July, 2013

Change the Weather History Date:

Tuesday, July 30, 2013

  Actual Average (KARR) Record (KARR)
Temperature  
Mean Temperature 63 °F 71 °F  
Max Temperature 69 °F 82 °F 99 °F (1999)
Min Temperature 57 °F 59 °F 53 °F (2003)
Degree Days  
Heating Degree Days 2 0  
Month to date heating degree days 0  
Since 1 June heating degree days 41  
Since 1 July heating degree days 0  
Cooling Degree Days 0 6  
Month to date cooling degree days 205  
Year to date cooling degree days 401  
Since 1 June cooling degree days 360  
Growing Degree Days 13 (Base 50)    
Moisture  
Dew Point 60 °F    
Average Humidity 88    
Maximum Humidity 91    
Minimum Humidity 77    
Precipitation  
Precipitation 0.21 in 0.15 in 1.13 in (2000)
Month to date precipitation 4.05  
Year to date precipitation 20.94  
Sea Level Pressure  
Sea Level Pressure 30.15 in    
Wind  
Wind Speed 6 mph (ESE)    
Max Wind Speed 13 mph    
Max Gust Speed 16 mph    
Visibility 6 miles    
Events Rain    
T = Trace of Precipitation, MM = Missing Value Source: NWS Daily Summary

Daily Weather History Graph

Daily Weather History Graph

Search for Another Location

Airport or City:

Trip Planner

Search our weather history database for the weather conditions in past years. The results will help you decide how hot, cold, wet, or windy it might be!

Date:

Astronomy

Jul. 30, 2013 Rise Set
Actual Time 5:46 AM CDT 8:15 PM CDT
Civil Twilight 5:15 AM CDT 8:46 PM CDT
Nautical Twilight 4:35 AM CDT 9:25 PM CDT
Astronomical Twilight 3:51 AM CDT 10:09 PM CDT
Moon 12:05 AM CDT (7/30) 2:34 PM CDT (7/30)
Length of Visible Light 15h 31m
Length of Day
14h 28m
Last Quarter, 41% of the Moon is Illuminated
Jul 30
Last Quarter
Aug 6
New
Aug 14
First Quarter
Aug 20
Full
Aug 28
Last Quarter

Hourly Weather History & Observations

Time (CDT) Temp. Dew Point Humidity Pressure Visibility Wind Dir Wind Speed Gust Speed Precip Events Conditions
12:15 AM 59.9 °F 56.5 °F 88% 30.19 in 10.0 mi ESE 3.5 mph - N/A   Clear
12:35 AM 59.5 °F 56.3 °F 89% 30.19 in 10.0 mi ESE 4.6 mph - N/A   Clear
12:55 AM 59.2 °F 56.3 °F 90% 30.19 in 10.0 mi ESE 4.6 mph - N/A   Clear
1:15 AM 59.0 °F 55.8 °F 89% 30.19 in 7.0 mi SE 5.8 mph - N/A   Clear
1:35 AM 59.4 °F 56.3 °F 90% 30.19 in 7.0 mi ESE 4.6 mph - N/A   Clear
1:55 AM 58.5 °F 55.6 °F 90% 30.19 in 7.0 mi ESE 4.6 mph - N/A   Clear
2:15 AM 58.5 °F 55.6 °F 90% 30.18 in 7.0 mi ESE 5.8 mph - N/A   Clear
2:35 AM 58.5 °F 55.6 °F 90% 30.18 in 5.0 mi SE 4.6 mph - N/A   Clear
2:55 AM 58.8 °F 55.9 °F 90% 30.17 in 5.0 mi ESE 6.9 mph - N/A   Clear
3:15 AM 57.2 °F 54.5 °F 91% 30.18 in 4.0 mi SE 4.6 mph - N/A   Clear
3:35 AM 58.1 °F 55.0 °F 90% 30.17 in 5.0 mi SE 5.8 mph - N/A   Clear
3:55 AM 58.1 °F 55.4 °F 91% 30.17 in 4.0 mi ESE 6.9 mph - N/A   Clear
4:15 AM 58.1 °F 55.0 °F 90% 30.17 in 4.0 mi SE 6.9 mph - N/A   Clear
4:35 AM 58.1 °F 55.0 °F 90% 30.18 in 4.0 mi ESE 5.8 mph - N/A   Clear
4:55 AM 58.1 °F 55.2 °F 90% 30.18 in 4.0 mi SE 4.6 mph - N/A   Clear
5:15 AM 57.2 °F 54.3 °F 90% 30.18 in 4.0 mi SE 5.8 mph - N/A   Clear
5:35 AM 57.7 °F 54.9 °F 90% 30.18 in 5.0 mi East 4.6 mph - N/A   Clear
5:55 AM 57.2 °F 54.1 °F 89% 30.19 in 2.5 mi East 4.6 mph - N/A   Clear
6:15 AM 58.1 °F 55.0 °F 90% 30.19 in 2.5 mi East 3.5 mph - N/A   Clear
6:35 AM 59.7 °F 56.7 °F 90% 30.19 in 4.0 mi East 4.6 mph - N/A   Clear
6:55 AM 60.8 °F 57.7 °F 90% 30.19 in 7.0 mi ESE 5.8 mph - N/A   Clear
7:15 AM 60.8 °F 57.2 °F 88% 30.19 in 10.0 mi ESE 4.6 mph - N/A   Clear
7:35 AM 61.7 °F 57.6 °F 86% 30.19 in 10.0 mi ESE 5.8 mph - N/A   Clear
7:55 AM 62.2 °F 57.4 °F 84% 30.19 in 10.0 mi SE 6.9 mph - N/A   Scattered Clouds
8:15 AM 63.3 °F 58.6 °F 85% 30.19 in 10.0 mi ESE 5.8 mph - N/A   Clear
8:35 AM 63.5 °F 58.5 °F 84% 30.19 in 10.0 mi SE 5.8 mph - N/A   Clear
8:55 AM 64.6 °F 59.4 °F 83% 30.19 in 10.0 mi ESE 6.9 mph - N/A   Mostly Cloudy
9:15 AM 65.5 °F 59.5 °F 81% 30.19 in 10.0 mi SE 4.6 mph - N/A   Overcast
9:35 AM 67.3 °F 60.3 °F 78% 30.19 in 10.0 mi ESE 5.8 mph - N/A   Overcast
9:55 AM 68.4 °F 60.8 °F 77% 30.19 in 10.0 mi SSE 6.9 mph - N/A   Overcast
10:15 AM 68.4 °F 60.8 °F 77% 30.19 in 10.0 mi SSE 8.1 mph - N/A   Mostly Cloudy
10:35 AM 68.0 °F 60.4 °F 77% 30.19 in 10.0 mi SSE 8.1 mph - N/A   Mostly Cloudy
10:55 AM 67.5 °F 61.0 °F 80% 30.18 in 10.0 mi SE 8.1 mph - N/A   Overcast
11:15 AM 66.9 °F 61.7 °F 83% 30.18 in 7.0 mi SE 9.2 mph - N/A   Light Drizzle
11:55 AM 68.0 °F 62.8 °F 83% 30.17 in 10.0 mi East 6.9 mph - N/A   Scattered Clouds
12:15 PM 67.6 °F 63.5 °F 87% 30.17 in 7.0 mi ESE 9.2 mph - N/A   Light Drizzle
12:35 PM 66.7 °F 63.1 °F 88% 30.17 in 5.0 mi SE 9.2 mph - N/A Rain Light Rain
1:15 PM 66.4 °F 63.5 °F 90% 30.16 in 4.0 mi ESE 8.1 mph - 0.01 in   Drizzle
1:35 PM 66.0 °F 63.0 °F 90% 30.15 in 2.5 mi ESE 8.1 mph - 0.05 in Rain Rain
1:55 PM 65.3 °F 62.6 °F 91% 30.15 in 2.5 mi ESE 6.9 mph - 0.13 in Rain Rain
2:15 PM 65.7 °F 62.8 °F 90% 30.15 in 3.0 mi ESE 8.1 mph - 0.01 in Rain Light Rain
2:35 PM 65.7 °F 62.8 °F 90% 30.14 in 3.0 mi ESE 8.1 mph - 0.04 in Rain Light Rain
2:55 PM 66.4 °F 63.5 °F 90% 30.13 in 7.0 mi East 9.2 mph - 0.04 in   Overcast
3:15 PM 66.4 °F 63.5 °F 90% 30.13 in 10.0 mi ESE 9.2 mph - N/A   Overcast
3:35 PM 66.9 °F 63.9 °F 90% 30.12 in 10.0 mi ESE 9.2 mph - N/A   Overcast
3:55 PM 67.6 °F 64.6 °F 90% 30.12 in 10.0 mi ESE 9.2 mph - N/A   Overcast
4:15 PM 67.6 °F 64.4 °F 89% 30.11 in 10.0 mi ESE 8.1 mph - N/A   Overcast
4:35 PM 69.1 °F 65.5 °F 88% 30.11 in 10.0 mi ESE 9.2 mph - N/A   Mostly Cloudy
4:55 PM 69.3 °F 65.5 °F 88% 30.11 in 10.0 mi SE 12.7 mph - N/A   Light Drizzle
5:15 PM 68.9 °F 64.4 °F 86% 30.11 in 10.0 mi ESE 9.2 mph 16.1 mph N/A   Overcast
5:35 PM 68.9 °F 63.9 °F 84% 30.10 in 10.0 mi SE 9.2 mph - N/A   Overcast
5:55 PM 68.7 °F 63.7 °F 84% 30.10 in 10.0 mi SE 6.9 mph - N/A   Overcast
6:15 PM 68.7 °F 63.1 °F 82% 30.10 in 10.0 mi SE 8.1 mph - N/A   Overcast
6:35 PM 68.0 °F 62.6 °F 83% 30.10 in 10.0 mi SE 8.1 mph - N/A   Overcast
6:55 PM 66.9 °F 62.6 °F 86% 30.11 in 5.0 mi ESE 6.9 mph - N/A   Drizzle
7:15 PM 65.7 °F 62.2 °F 89% 30.10 in 5.0 mi ESE 5.8 mph - N/A   Drizzle
7:35 PM 65.7 °F 62.6 °F 90% 30.10 in 7.0 mi ESE 6.9 mph - 0.01 in   Overcast
7:55 PM 65.7 °F 62.6 °F 90% 30.10 in 4.0 mi SE 8.1 mph - 0.01 in   Overcast
8:15 PM 65.5 °F 62.6 °F 90% 30.10 in 4.0 mi SE 5.8 mph - 0.02 in Rain Rain
8:35 PM 65.5 °F 62.6 °F 90% 30.10 in 4.0 mi ESE 5.8 mph - 0.02 in   Overcast
8:55 PM 65.3 °F 62.6 °F 91% 30.09 in 2.0 mi ESE 5.8 mph - 0.02 in Rain Rain
9:15 PM 65.3 °F 62.2 °F 90% 30.10 in 2.5 mi ESE 8.1 mph - 0.01 in   Light Drizzle
9:35 PM 64.9 °F 62.1 °F 90% 30.10 in 3.0 mi ESE 11.5 mph - 0.01 in Rain Light Rain
9:55 PM 64.4 °F 61.5 °F 90% 30.10 in 3.0 mi ESE 8.1 mph - 0.01 in Rain Light Rain
10:15 PM 64.4 °F 61.3 °F 90% 30.10 in 3.0 mi ESE 9.2 mph - N/A   Overcast
10:35 PM 64.4 °F 61.3 °F 90% 30.10 in 2.5 mi ESE 8.1 mph - N/A   Overcast
10:55 PM 64.4 °F 61.7 °F 91% 30.09 in 2.5 mi ESE 8.1 mph - N/A   Overcast
11:15 PM 64.4 °F 61.7 °F 91% 30.09 in 2.5 mi ESE 6.9 mph - N/A   Overcast
11:35 PM 64.4 °F 61.7 °F 91% 30.09 in 2.0 mi ESE 8.1 mph - N/A   Overcast
11:55 PM 64.4 °F 61.5 °F 90% 30.09 in 2.0 mi SE 8.1 mph - N/A   Overcast